Piney Point, MD current weather conditions

sailwx.info

Wind from 219 at 6 knots gusting 8

Last reported at 2019-Aug-21 23:54 UTC.
Time now 2019-Aug-22 00:20 UTC

Location: N 38°08' W 076°32'.
View on Google Maps.

See reports from other nearby stations

  
Tides and Currents Weather Stations Pressure Air Temp Water Temp Dewpoint Dewpoint Depression Visibility Wind Speed Wind Dir Waves Ship Positions
date/time (UTC)wind fromknots sea level pressurealtimeterstation pressurevisibilityair tempwater tempwave heightnotes
2019-Aug-21 23:54 219 6 gusting 8
2019-Aug-21 23:48 212 7 gusting 9
2019-Aug-21 23:42 217 7 gusting 8
2019-Aug-21 23:36 202 7 gusting 9
2019-Aug-21 23:30 209 8 gusting 9
2019-Aug-21 23:24 222 6 gusting 7
2019-Aug-21 23:18 240 3 gusting 7
2019-Aug-21 23:12 236 6 gusting 9
2019-Aug-21 23:06 240 5 gusting 11
2019-Aug-21 23:00 242 5 gusting 7
2019-Aug-21 22:54 249 4 gusting 6
2019-Aug-21 22:48 246 3 gusting 6
2019-Aug-21 22:42 245 4 gusting 6
2019-Aug-21 22:36 251 4 gusting 9
2019-Aug-21 22:30 244 3 gusting 8
2019-Aug-21 22:24 248 4 gusting 7
2019-Aug-21 22:18 254 7 gusting 11
2019-Aug-21 22:12 245 4 gusting 7
2019-Aug-21 22:06 260 7 gusting 10
2019-Aug-21 22:00 256 6 gusting 9
2019-Aug-21 21:54 252 5 gusting 6
2019-Aug-21 21:48 226 6 gusting 8
2019-Aug-21 21:42 247 3 gusting 6
2019-Aug-21 21:36 243 2 gusting 8
2019-Aug-21 21:30 268 7 gusting 9
2019-Aug-21 21:24 261 7 gusting 9
2019-Aug-21 21:18 244 4 gusting 7
2019-Aug-21 21:12 243 5 gusting 10
2019-Aug-21 21:06 246 4 gusting 7
2019-Aug-21 21:00 248 3 gusting 10
2019-Aug-21 20:54 229 9 gusting 10
2019-Aug-21 20:48 226 7 gusting 9
2019-Aug-21 20:42 244 4 gusting 11
2019-Aug-21 20:36 232 7 gusting 8
2019-Aug-21 20:30 245 3 gusting 12
2019-Aug-21 20:24 222 6 gusting 8
2019-Aug-21 20:18 239 6 gusting 11
2019-Aug-21 20:12 224 10 gusting 13
2019-Aug-21 20:06 216 5 gusting 7
2019-Aug-21 20:00 186 6 gusting 8
2019-Aug-21 19:54 205 8 gusting 9
2019-Aug-21 19:48 203 6 gusting 9
2019-Aug-21 19:42 190 8 gusting 10
2019-Aug-21 19:36 200 6 gusting 8
2019-Aug-21 19:30 201 7 gusting 10
2019-Aug-21 19:24 196 8 gusting 11
2019-Aug-21 19:18 203 8 gusting 10
2019-Aug-21 19:12 199 8 gusting 10
2019-Aug-21 19:06 210 8 gusting 11
2019-Aug-21 19:00 206 6 gusting 19
2019-Aug-21 18:54 210 9 gusting 13
2019-Aug-21 18:48 210 10 gusting 13
2019-Aug-21 18:42 210 9 gusting 13
2019-Aug-21 18:36 203 9 gusting 11
2019-Aug-21 18:30 192 8 gusting 12
2019-Aug-21 18:24 184 10 gusting 11
2019-Aug-21 18:18 199 7 gusting 11
2019-Aug-21 18:12 192 6 gusting 9
2019-Aug-21 18:06 200 9 gusting 12
2019-Aug-21 18:00 204 10 gusting 13
2019-Aug-21 17:54 204 8 gusting 11
2019-Aug-21 17:48 210 10 gusting 12
2019-Aug-21 17:42 206 10 gusting 12
2019-Aug-21 17:36 226 13 gusting 14
2019-Aug-21 17:30 219 9 gusting 12
2019-Aug-21 17:24 216 8 gusting 11
2019-Aug-21 17:18 226 6 gusting 9
2019-Aug-21 17:12 206 7 gusting 9
2019-Aug-21 17:06 206 6 gusting 12
2019-Aug-21 17:00 219 6 gusting 10
2019-Aug-21 16:54 220 6 gusting 9
2019-Aug-21 16:48 241 3 gusting 6
2019-Aug-21 16:42 239 6 gusting 8
2019-Aug-21 16:36 238 5 gusting 8
2019-Aug-21 16:30 227 6 gusting 9
2019-Aug-21 16:24 229 6 gusting 7
2019-Aug-21 16:18 232 6 gusting 8
2019-Aug-21 16:12 241 3 gusting 7
2019-Aug-21 16:06 241 5 gusting 9
2019-Aug-21 16:00 230 8 gusting 9
2019-Aug-21 15:54 235 5 gusting 7
2019-Aug-21 15:48 242 3 gusting 7
2019-Aug-21 15:42 246 3 gusting 8
2019-Aug-21 15:36 244 5 gusting 9
2019-Aug-21 15:30 226 6 gusting 8
2019-Aug-21 15:24 217 6 gusting 9
2019-Aug-21 15:18 219 6 gusting 8
2019-Aug-21 15:12 221 8 gusting 10
2019-Aug-21 15:06 217 7 gusting 11
2019-Aug-21 15:00 222 6 gusting 9
2019-Aug-21 14:54 208 7 gusting 11
2019-Aug-21 14:48 229 7 gusting 11
2019-Aug-21 14:42 220 9 gusting 11
2019-Aug-21 14:36 220 9 gusting 11
2019-Aug-21 14:30 238 6 gusting 8
2019-Aug-21 14:24 229 6 gusting 9
2019-Aug-21 14:18 233 7 gusting 10
2019-Aug-21 14:12 239 6 gusting 8
2019-Aug-21 14:06 237 6 gusting 9
2019-Aug-21 14:00 237 7 gusting 11
2019-Aug-21 13:54 222 10 gusting 11
2019-Aug-21 13:48 223 9 gusting 13
2019-Aug-21 13:42 220 10 gusting 11
2019-Aug-21 13:36 212 8 gusting 10
2019-Aug-21 13:30 222 8 gusting 11
2019-Aug-21 13:24 222 8 gusting 11
2019-Aug-21 13:18 224 7 gusting 11
2019-Aug-21 13:12 226 7 gusting 12
2019-Aug-21 13:06 231 8 gusting 11
2019-Aug-21 13:00 222 8 gusting 9
2019-Aug-21 12:54 228 7 gusting 10
2019-Aug-21 12:48 225 8 gusting 9
2019-Aug-21 12:42 229 8 gusting 10
2019-Aug-21 12:36 237 5 gusting 8
2019-Aug-21 12:30 232 6 gusting 9
2019-Aug-21 12:24 239 5 gusting 6
2019-Aug-21 12:18 246 3 gusting 6
2019-Aug-21 12:12 248 4 gusting 10
2019-Aug-21 12:06 248 4 gusting 6
2019-Aug-21 12:00 260 6 gusting 9
2019-Aug-21 11:54 250 5 gusting 7
2019-Aug-21 11:48 251 4 gusting 7
2019-Aug-21 11:42 242 4 gusting 8
2019-Aug-21 11:36 241 5 gusting 9
2019-Aug-21 11:30 233 7 gusting 10
2019-Aug-21 11:24 230 8 gusting 11
2019-Aug-21 11:18 225 8 gusting 10
2019-Aug-21 11:12 229 9 gusting 11
2019-Aug-21 11:06 228 9 gusting 11
2019-Aug-21 11:00 229 7 gusting 9
2019-Aug-21 10:54 232 5 gusting 8
2019-Aug-21 10:48 225 6 gusting 8
2019-Aug-21 10:42 229 7 gusting 9
2019-Aug-21 10:36 224 7 gusting 11
2019-Aug-21 10:30 220 6 gusting 9
2019-Aug-21 10:24 227 9 gusting 11
2019-Aug-21 10:18 222 9 gusting 11
2019-Aug-21 10:12 232 8 gusting 13
2019-Aug-21 10:06 234 9 gusting 11
2019-Aug-21 10:00 230 9 gusting 10
2019-Aug-21 09:54 226 9 gusting 12
2019-Aug-21 09:48 223 11 gusting 13
2019-Aug-21 09:42 226 10 gusting 12
2019-Aug-21 09:36 228 10 gusting 12
2019-Aug-21 09:30 232 9 gusting 12
2019-Aug-21 09:24 232 9 gusting 12
2019-Aug-21 09:18 233 9 gusting 14
2019-Aug-21 09:12 229 13 gusting 14
2019-Aug-21 09:06 228 12 gusting 14
2019-Aug-21 09:00 230 11 gusting 13
2019-Aug-21 08:54 231 10 gusting 13
2019-Aug-21 08:48 240 6 gusting 10
2019-Aug-21 08:42 244 5 gusting 8
2019-Aug-21 08:36 248 5 gusting 7
2019-Aug-21 08:30 247 5 gusting 8
2019-Aug-21 08:24 243 6 gusting 10
2019-Aug-21 08:18 245 6 gusting 9
2019-Aug-21 08:12 242 6 gusting 11
2019-Aug-21 08:06 251 6 gusting 11
2019-Aug-21 08:00 256 8 gusting 11
2019-Aug-21 07:54 256 9 gusting 12
2019-Aug-21 07:48 253 7 gusting 10
2019-Aug-21 07:42 252 6 gusting 9
2019-Aug-21 07:36 244 5 gusting 13
2019-Aug-21 07:30 235 8 gusting 13
2019-Aug-21 07:24 231 9 gusting 12
2019-Aug-21 07:18 232 10 gusting 13
2019-Aug-21 07:12 233 8 gusting 12
2019-Aug-21 07:06 241 6 gusting 12
2019-Aug-21 07:00 238 8 gusting 11
2019-Aug-21 06:54 241 6 gusting 11
2019-Aug-21 06:48 247 4 gusting 11
2019-Aug-21 06:42 243 5 gusting 10
2019-Aug-21 06:36 243 6 gusting 9
2019-Aug-21 06:30 239 5 gusting 7
2019-Aug-21 06:24 242 4 gusting 7
2019-Aug-21 06:18 252 3 gusting 6
2019-Aug-21 06:12 240 3 gusting 6
2019-Aug-21 06:06 240 3 gusting 7
2019-Aug-21 06:00 220 6 gusting 8
2019-Aug-21 05:54 234 5 gusting 9
2019-Aug-21 05:48 229 5 gusting 6
2019-Aug-21 05:42 228 4 gusting 6
2019-Aug-21 05:36 248 3 gusting 6
2019-Aug-21 05:30 252 4 gusting 7
2019-Aug-21 05:24 229 5 gusting 6
2019-Aug-21 05:18 231 2 gusting 7
2019-Aug-21 05:12 211 5 gusting 6
2019-Aug-21 05:06 177 5 gusting 10
2019-Aug-21 05:00 195 7 gusting 10
2019-Aug-21 04:54 201 8 gusting 12
2019-Aug-21 04:48 196 11 gusting 13
2019-Aug-21 04:42 200 11 gusting 13
2019-Aug-21 04:36 211 9 gusting 12
2019-Aug-21 04:30 214 10 gusting 13
2019-Aug-21 04:24 204 13 gusting 14
2019-Aug-21 04:18 204 11 gusting 13
2019-Aug-21 04:12 203 11 gusting 13
2019-Aug-21 04:06 201 8 gusting 12
2019-Aug-21 04:00 215 8 gusting 11
2019-Aug-21 03:54 216 9 gusting 11
2019-Aug-21 03:48 203 9 gusting 12
2019-Aug-21 03:42 194 10 gusting 12
2019-Aug-21 03:36 203 7 gusting 13
2019-Aug-21 03:30 196 9 gusting 11
2019-Aug-21 03:24 193 8 gusting 11
2019-Aug-21 03:18 194 7 gusting 9
2019-Aug-21 03:12 198 4 gusting 9
2019-Aug-21 03:06 189 6 gusting 10
2019-Aug-21 03:00 232 3 gusting 9
2019-Aug-21 02:54 250 5 gusting 13
2019-Aug-21 02:48 200 11 gusting 17
2019-Aug-21 02:42 192 14 gusting 19
2019-Aug-21 02:36 199 13 gusting 16
2019-Aug-21 02:30 215 14 gusting 19
2019-Aug-21 02:24 229 18 gusting 22
2019-Aug-21 02:18 231 19 gusting 24
2019-Aug-21 02:12 224 14 gusting 20
2019-Aug-21 02:06 232 17 gusting 22
2019-Aug-21 02:00 235 16 gusting 22
2019-Aug-21 01:54 226 16 gusting 20
2019-Aug-21 01:48 234 15 gusting 19
2019-Aug-21 01:42 152 6 gusting 6
2019-Aug-21 01:36 129 5 gusting 9
2019-Aug-21 01:30 111 9 gusting 11
2019-Aug-21 01:24 081 6 gusting 7
2019-Aug-21 01:18 034 6 gusting 9
2019-Aug-21 01:12 031 6 gusting 13
2019-Aug-21 01:06 349 13 gusting 16
2019-Aug-21 01:00 341 15 gusting 19
2019-Aug-21 00:54 329 19 gusting 26
2019-Aug-21 00:48 325 24 gusting 26
2019-Aug-21 00:42 330 22 gusting 31
2019-Aug-21 00:36 321 29 gusting 33
2019-Aug-21 00:30 324 24 gusting 32
2019-Aug-21 00:24 336 19 gusting 35
2019-Aug-21 00:18 312 14 gusting 20
2019-Aug-21 00:12 319 8 gusting 9
2019-Aug-21 00:06 321 7 gusting 8
2019-Aug-21 00:00 325 7 gusting 8
2019-Aug-20 23:54 318 6 gusting 10
2019-Aug-20 23:48 305 10 gusting 13
2019-Aug-20 23:42 316 13 gusting 14
2019-Aug-20 23:36 314 12 gusting 14
2019-Aug-20 23:30 316 11 gusting 12
2019-Aug-20 23:24 311 7 gusting 9
2019-Aug-20 23:18 308 8 gusting 10
2019-Aug-20 23:12 316 6 gusting 6
2019-Aug-20 23:06 319 5 gusting 6
2019-Aug-20 23:00 356 6 gusting 9
2019-Aug-20 22:54 015 6 gusting 10
2019-Aug-20 22:48 011 9 gusting 11
2019-Aug-20 22:42 025 5 gusting 6
2019-Aug-20 22:36 089 3 gusting 5
2019-Aug-20 22:30 078 4 gusting 5
2019-Aug-20 22:24 062 3 gusting 6
2019-Aug-20 22:18 120 6 gusting 8
2019-Aug-20 22:12 151 9 gusting 10
2019-Aug-20 22:06 140 8 gusting 11
2019-Aug-20 22:00 146 12 gusting 14
2019-Aug-20 21:54 152 13 gusting 17
2019-Aug-20 21:48 142 13 gusting 17
2019-Aug-20 21:42 119 12 gusting 13
2019-Aug-20 21:36 112 12 gusting 13
2019-Aug-20 21:30 129 11 gusting 13
2019-Aug-20 21:24 126 11 gusting 13
2019-Aug-20 21:18 110 12 gusting 13
2019-Aug-20 21:12 109 13 gusting 14
2019-Aug-20 21:06 122 13 gusting 13
2019-Aug-20 21:00 127 13 gusting 15
2019-Aug-20 20:54 125 13 gusting 16
2019-Aug-20 20:48 115 13 gusting 14
2019-Aug-20 20:42 124 12 gusting 13
2019-Aug-20 20:36 123 10 gusting 11
2019-Aug-20 20:30 122 10 gusting 12
2019-Aug-20 20:24 113 10 gusting 12
2019-Aug-20 20:18 108 9 gusting 11
2019-Aug-20 20:12 121 9 gusting 9
2019-Aug-20 20:06 134 6 gusting 7
2019-Aug-20 20:00 135 6 gusting 7
2019-Aug-20 19:54 140 6 gusting 6
2019-Aug-20 19:48 153 6 gusting 9
2019-Aug-20 19:42 154 8 gusting 9
2019-Aug-20 19:36 144 8 gusting 10
2019-Aug-20 19:30 151 10 gusting 11
2019-Aug-20 19:24 152 10 gusting 13
2019-Aug-20 19:18 156 10 gusting 12
2019-Aug-20 19:12 156 11 gusting 13
2019-Aug-20 19:06 152 11 gusting 12
2019-Aug-20 19:00 154 11 gusting 12
2019-Aug-20 18:54 152 9 gusting 11
2019-Aug-20 18:48 157 9 gusting 10
2019-Aug-20 18:42 160 8 gusting 9
2019-Aug-20 18:36 160 9 gusting 11
2019-Aug-20 18:30 161 8 gusting 11
2019-Aug-20 18:24 158 9 gusting 10
2019-Aug-20 18:18 159 9 gusting 11
2019-Aug-20 18:12 159 11 gusting 11
2019-Aug-20 18:06 159 8 gusting 10
2019-Aug-20 18:00 158 9 gusting 10
2019-Aug-20 17:54 159 8 gusting 10
2019-Aug-20 17:48 158 7 gusting 9
2019-Aug-20 17:42 156 7 gusting 9
2019-Aug-20 17:36 162 7 gusting 8
2019-Aug-20 17:30 168 6 gusting 8
2019-Aug-20 17:24 172 6 gusting 6
2019-Aug-20 17:18 174 6 gusting 6
2019-Aug-20 17:12 176 6 gusting 6
2019-Aug-20 17:06 171 6 gusting 7
2019-Aug-20 17:00 175 5 gusting 6
2019-Aug-20 16:54 185 5 gusting 6
2019-Aug-20 16:48 186 4 gusting 5
2019-Aug-20 16:42 204 3 gusting 4
2019-Aug-20 16:36 208 3 gusting 4
2019-Aug-20 16:30 217 3 gusting 5
2019-Aug-20 16:24 214 4 gusting 4
2019-Aug-20 16:18 217 3 gusting 4
2019-Aug-20 16:12 221 3 gusting 4
2019-Aug-20 16:06 234 1 gusting 3
2019-Aug-20 16:00 266 2 gusting 3
2019-Aug-20 15:54 258 2 gusting 3
2019-Aug-20 15:48 261 2 gusting 3
2019-Aug-20 15:42 263 2 gusting 3
2019-Aug-20 15:36 270 1 gusting 2
2019-Aug-20 15:30 304 1 gusting 3
2019-Aug-20 15:24 299 2 gusting 3
2019-Aug-20 15:18 303 3 gusting 4
2019-Aug-20 15:12 294 2 gusting 4
2019-Aug-20 15:06 291 2 gusting 4
2019-Aug-20 15:00 296 3 gusting 4
2019-Aug-20 14:54 299 3 gusting 4
2019-Aug-20 14:48 298 3 gusting 4
2019-Aug-20 14:42 320 4 gusting 5
2019-Aug-20 14:36 309 3 gusting 4
2019-Aug-20 14:30 313 3 gusting 3
2019-Aug-20 14:24 315 2 gusting 3
2019-Aug-20 14:18 317 3 gusting 3
2019-Aug-20 14:12 311 2 gusting 3
2019-Aug-20 14:06 305 2 gusting 4
2019-Aug-20 14:00 286 1 gusting 3
2019-Aug-20 13:54 306 2 gusting 3
2019-Aug-20 13:48 284 1 gusting 3
2019-Aug-20 13:42 287 1 gusting 3
2019-Aug-20 13:36 312 2 gusting 3
2019-Aug-20 13:30 296 3 gusting 5
2019-Aug-20 13:24 293 4 gusting 5
2019-Aug-20 13:18 285 4 gusting 5
2019-Aug-20 13:12 273 3 gusting 5
2019-Aug-20 13:06 267 5 gusting 6
2019-Aug-20 13:00 237 1 gusting 6
2019-Aug-20 12:54 269 5 gusting 6
2019-Aug-20 12:48 261 4 gusting 5
2019-Aug-20 12:42 259 3 gusting 5
2019-Aug-20 12:36 258 3 gusting 5
2019-Aug-20 12:30 269 3 gusting 6
2019-Aug-20 12:24 268 5 gusting 6
2019-Aug-20 12:18 259 4 gusting 6
2019-Aug-20 12:12 252 3 gusting 5
2019-Aug-20 12:06 258 3 gusting 6
2019-Aug-20 12:00 245 2 gusting 5
2019-Aug-20 11:54 254 3 gusting 6
2019-Aug-20 11:48 269 5 gusting 6
2019-Aug-20 11:42 270 5 gusting 6
2019-Aug-20 11:36 281 5 gusting 6
2019-Aug-20 11:30 284 5 gusting 6
2019-Aug-20 11:24 281 5 gusting 6
2019-Aug-20 11:18 294 6 gusting 6
2019-Aug-20 11:12 296 6 gusting 6
2019-Aug-20 11:06 289 5 gusting 6
2019-Aug-20 11:00 302 6 gusting 7
2019-Aug-20 10:54 295 7 gusting 8
2019-Aug-20 10:48 294 6 gusting 7
2019-Aug-20 10:42 302 6 gusting 7
2019-Aug-20 10:36 303 6 gusting 7
2019-Aug-20 10:30 305 6 gusting 8
2019-Aug-20 10:24 287 6 gusting 7
2019-Aug-20 10:18 288 6 gusting 8
2019-Aug-20 10:12 287 7 gusting 8
2019-Aug-20 10:06 286 7 gusting 8
2019-Aug-20 10:00 282 7 gusting 8
2019-Aug-20 09:54 286 6 gusting 9
2019-Aug-20 09:48 292 7 gusting 9
2019-Aug-20 09:42 298 7 gusting 9
2019-Aug-20 09:36 297 7 gusting 8
2019-Aug-20 09:30 285 5 gusting 7
2019-Aug-20 09:24 284 5 gusting 6
2019-Aug-20 09:18 282 6 gusting 6
2019-Aug-20 09:12 280 4 gusting 6
2019-Aug-20 09:06 303 4 gusting 6
2019-Aug-20 09:00 302 4 gusting 5
2019-Aug-20 08:54 285 3 gusting 4
2019-Aug-20 08:48 231 4 gusting 5
2019-Aug-20 08:42 227 4 gusting 5
2019-Aug-20 08:36 232 4 gusting 6
2019-Aug-20 08:30 231 4 gusting 5
2019-Aug-20 08:24 251 2 gusting 5
2019-Aug-20 08:18 258 3 gusting 5
2019-Aug-20 08:12 263 5 gusting 6
2019-Aug-20 08:06 265 5 gusting 6
2019-Aug-20 08:00 258 4 gusting 5
2019-Aug-20 07:54 261 3 gusting 4
2019-Aug-20 07:48 258 2 gusting 3
2019-Aug-20 07:42 322
2019-Aug-20 07:36 340 0 gusting 2
2019-Aug-20 07:30 007 2 gusting 3
2019-Aug-20 07:24 261 0 gusting 1
2019-Aug-20 07:18 257 0 gusting 1
2019-Aug-20 07:12 353
2019-Aug-20 07:06 031 0 gusting 1
2019-Aug-20 07:00 037 0 gusting 1
2019-Aug-20 06:54 055 0 gusting 2
2019-Aug-20 06:48 045 1 gusting 1
2019-Aug-20 06:42 063 1 gusting 4
2019-Aug-20 06:36 029 3 gusting 4
2019-Aug-20 06:30 024 3 gusting 3
2019-Aug-20 06:24 044 2 gusting 5
2019-Aug-20 06:18 026 4 gusting 5
2019-Aug-20 06:12 359 3 gusting 3
2019-Aug-20 06:06
2019-Aug-20 06:00 298 4 gusting 5
2019-Aug-20 05:54 340 2 gusting 3
2019-Aug-20 05:48 307 3 gusting 4
2019-Aug-20 05:42 311 4 gusting 6
2019-Aug-20 05:36 320 6 gusting 9
2019-Aug-20 05:30 323 6 gusting 9
2019-Aug-20 05:24 331 8 gusting 10
2019-Aug-20 05:18 251 1 gusting 5
2019-Aug-20 05:12 221 3 gusting 4
2019-Aug-20 05:06 235 3 gusting 3
2019-Aug-20 05:00 235 2 gusting 4
2019-Aug-20 04:54 233 4 gusting 5
2019-Aug-20 04:48 240 2 gusting 4
2019-Aug-20 04:42 255 3 gusting 5
2019-Aug-20 04:36 255 3 gusting 5
2019-Aug-20 04:30 243 2 gusting 4
2019-Aug-20 04:24 253 3 gusting 5
2019-Aug-20 04:18 276 4 gusting 6
2019-Aug-20 04:12 295 4 gusting 6
2019-Aug-20 04:06 294 6 gusting 7
2019-Aug-20 04:00 280 5 gusting 7
2019-Aug-20 03:54 280 4 gusting 9
2019-Aug-20 03:48 289 7 gusting 9
2019-Aug-20 03:42 249 2 gusting 5
2019-Aug-20 03:36 241 3 gusting 5
2019-Aug-20 03:30 217 4 gusting 5
2019-Aug-20 03:24 209 4 gusting 6
2019-Aug-20 03:18 202 6 gusting 8
2019-Aug-20 03:12 196 7 gusting 9
2019-Aug-20 03:06 191 8 gusting 9
2019-Aug-20 03:00 190 7 gusting 8
2019-Aug-20 02:54 187 8 gusting 9
2019-Aug-20 02:48 189 8 gusting 9
2019-Aug-20 02:42 188 8 gusting 9
2019-Aug-20 02:36 171 6 gusting 7
2019-Aug-20 02:30 159 5 gusting 6
2019-Aug-20 02:24 166 5 gusting 6
2019-Aug-20 02:18 159 5 gusting 6
2019-Aug-20 02:12 184 5 gusting 6
2019-Aug-20 02:06 204 5 gusting 6
2019-Aug-20 02:00 207 6 gusting 7
2019-Aug-20 01:54 201 4 gusting 5
2019-Aug-20 01:48 189
2019-Aug-20 01:42 062 1 gusting 2
2019-Aug-20 01:36 093 1 gusting 2
2019-Aug-20 01:30 349 3 gusting 6
2019-Aug-20 01:24 327 6 gusting 16
2019-Aug-20 01:18 328 13 gusting 20
2019-Aug-20 01:12 320 22 gusting 40
2019-Aug-20 01:06 308 20 gusting 31
2019-Aug-20 01:00 301 22 gusting 26
2019-Aug-20 00:54 310 18 gusting 26
2019-Aug-20 00:48 317 23 gusting 26
2019-Aug-20 00:42 307 16 gusting 25
2019-Aug-20 00:36 315 13 gusting 19
2019-Aug-20 00:30 283 11 gusting 13
2019-Aug-20 00:24 180 6 gusting 7
2019-Aug-20 00:18 171 6 gusting 10
2019-Aug-20 00:12 158 9 gusting 11
2019-Aug-20 00:06 142 7 gusting 9
2019-Aug-20 00:00 131 6 gusting 7